Location: ?????
(33.6267°N, 35.4675°E)
Time: 02:55:51
(UTC+00:00)

Cosmos 1151 Rocket - Pass Details

Date: 12 November 2019
Orbit: 592 x 616 km, 82.5° (Epoch: 11 December)

Event Time Altitude Azimuth Distance (km) Brightness Sun altitude
Rises 15:48:04 0° 161° (SSE) 2,844 6.4 -14.9°
Reaches altitude 10° 15:50:28 10° 151° (SSE) 1,949 5.4 -15.4°
Maximum altitude 15:54:12 29° 90° (E) 1,113 3.8 -16.2°
Enters shadow 15:54:19 29° 88° (E) 1,114 3.8 -16.2°
